Weather History for KBIE - December, 2012

Change the Weather History Date:

Wednesday, December 5, 2012

  Actual Average Record
Temperature  
Mean Temperature 44 °F -  
Max Temperature 61 °F 43 °F 65 °F (1975)
Min Temperature 28 °F 27 °F 3 °F (2005)
Degree Days  
Heating Degree Days 20    
Moisture  
Dew Point 19 °F    
Average Humidity 38    
Maximum Humidity 71    
Minimum Humidity 14    
Precipitation  
Precipitation 0.00 in - - ()
Sea Level Pressure  
Sea Level Pressure 30.11 in    
Wind  
Wind Speed 8 mph (SSE)    
Max Wind Speed 24 mph    
Max Gust Speed 33 mph    
Visibility 10 miles    
Events      
Averages and records for this station are not official NWS values.
T = Trace of Precipitation, MM = Missing Value Source: NWS Daily Summary

Daily Weather History Graph

Daily Weather History Graph

Search for Another Location

Airport or City:

Trip Planner

Search our weather history database for the weather conditions in past years. The results will help you decide how hot, cold, wet, or windy it might be!

Date:

Astronomy

Dec. 05, 2012 Rise Set
Actual Time 7:34 AM CST 5:00 PM CST
Civil Twilight 7:04 AM CST 5:31 PM CST
Nautical Twilight 6:30 AM CST 6:05 PM CST
Astronomical Twilight 5:57 AM CST 6:38 PM CST
Moon 11:52 PM CST (12/5) 11:58 AM CST (12/5)
Length of Visible Light 10h 26m
Length of Day
9h 25m
Waning Gibbous, 59% of the Moon is Illuminated
Dec 5
Waning Gibbous
Dec 6
Last Quarter
Dec 13
New
Dec 19
First Quarter
Dec 28
Full

Hourly Weather History & Observations

Time (CST) Temp. Windchill Dew Point Humidity Pressure Visibility Wind Dir Wind Speed Gust Speed Precip Events Conditions
12:15 AM 31.1 °F - 19.4 °F 62% 30.28 in 10.0 mi Calm Calm - N/A   Clear
12:35 AM 31.6 °F 28.3 °F 19.4 °F 61% 30.28 in 10.0 mi SE 3.5 mph - N/A   Clear
12:55 AM 32.4 °F - 19.6 °F 59% 30.28 in 10.0 mi Calm Calm - N/A   Clear
1:15 AM 31.1 °F - 19.6 °F 62% 30.28 in 10.0 mi Calm Calm - N/A   Clear
1:35 AM 30.2 °F - 19.4 °F 64% 30.29 in 10.0 mi Calm Calm - N/A   Clear
1:55 AM 28.8 °F - 18.1 °F 65% 30.28 in 10.0 mi Calm Calm - N/A   Clear
2:15 AM 30.6 °F 27.1 °F 20.3 °F 66% 30.28 in 10.0 mi East 3.5 mph - N/A   Clear
2:35 AM 31.8 °F 27.3 °F 20.8 °F 64% 30.28 in 10.0 mi East 4.6 mph - N/A   Clear
2:55 AM 32.0 °F 28.7 °F 21.0 °F 64% 30.28 in 10.0 mi East 3.5 mph - N/A   Clear
3:15 AM 32.0 °F 28.7 °F 20.7 °F 63% 30.28 in 10.0 mi ESE 3.5 mph - N/A   Clear
3:35 AM 32.4 °F 27.9 °F 20.8 °F 63% 30.27 in 10.0 mi ESE 4.6 mph - N/A   Clear
3:55 AM 31.1 °F - 19.9 °F 63% 30.27 in 10.0 mi Calm Calm - N/A   Clear
4:15 AM 28.9 °F - 20.5 °F 71% 30.26 in 10.0 mi Calm Calm - N/A   Clear
4:35 AM 29.1 °F - 19.0 °F 66% 30.26 in 10.0 mi Calm Calm - N/A   Clear
4:55 AM 30.2 °F - 20.3 °F 67% 30.26 in 10.0 mi Calm Calm - N/A   Clear
5:15 AM 32.0 °F 28.7 °F 20.8 °F 63% 30.25 in 10.0 mi ESE 3.5 mph - N/A   Clear
5:35 AM 31.6 °F 27.0 °F 20.8 °F 64% 30.25 in 10.0 mi ESE 4.6 mph - N/A   Clear
5:55 AM 32.7 °F 25.7 °F 20.8 °F 62% 30.24 in 10.0 mi SE 8.1 mph - N/A   Clear
6:15 AM 34.9 °F 27.7 °F 21.6 °F 58% 30.24 in 10.0 mi SSE 9.2 mph - N/A   Clear
6:35 AM 35.8 °F 30.1 °F 21.7 °F 57% 30.24 in 10.0 mi South 6.9 mph - N/A   Clear
6:55 AM 36.9 °F 31.4 °F 21.9 °F 55% 30.23 in 10.0 mi SSE 6.9 mph - N/A   Clear
8:35 AM 35.1 °F 31.0 °F 22.8 °F 61% 30.23 in 10.0 mi SSE 4.6 mph - N/A   Clear
8:55 AM 37.6 °F 33.1 °F 23.2 °F 56% 30.22 in 10.0 mi SE 5.8 mph - N/A   Clear
9:15 AM 39.4 °F 35.2 °F 23.2 °F 52% 30.22 in 10.0 mi SSE 5.8 mph - N/A   Clear
9:35 AM 40.5 °F 38.4 °F 23.7 °F 51% 30.22 in 10.0 mi SSE 3.5 mph - N/A   Clear
9:55 AM 43.7 °F 39.7 °F 23.7 °F 45% 30.22 in 10.0 mi South 6.9 mph - N/A   Clear
10:15 AM 46.2 °F 41.7 °F 23.2 °F 40% 30.22 in 10.0 mi South 9.2 mph - N/A   Clear
10:35 AM 49.1 °F - 22.6 °F 35% 30.20 in 10.0 mi South 12.7 mph 17.3 mph N/A   Clear
10:55 AM 51.4 °F - 21.2 °F 31% 30.19 in 10.0 mi South 11.5 mph 23.0 mph N/A   Clear
11:15 AM 52.3 °F - 21.2 °F 30% 30.18 in 10.0 mi South 18.4 mph 24.2 mph N/A   Clear
11:35 AM 55.4 °F - 20.5 °F 26% 30.16 in 10.0 mi South 16.1 mph 24.2 mph N/A   Clear
11:55 AM 57.6 °F - 19.0 °F 22% 30.15 in 10.0 mi South 15.0 mph 26.5 mph N/A   Clear
12:15 PM 58.8 °F - 18.3 °F 21% 30.13 in 10.0 mi South 17.3 mph - N/A   Clear
12:35 PM 59.9 °F - 15.4 °F 18% 30.12 in 10.0 mi South 24.2 mph 32.2 mph N/A   Clear
12:55 PM 60.8 °F - 14.7 °F 17% 30.09 in 10.0 mi South 24.2 mph 28.8 mph N/A   Clear
1:15 PM 61.5 °F - 14.4 °F 16% 30.08 in 10.0 mi South 24.2 mph 33.4 mph N/A   Clear
1:35 PM 60.3 °F - 14.5 °F 17% 30.06 in 10.0 mi South 24.2 mph 29.9 mph N/A   Clear
1:55 PM 60.1 °F - 15.6 °F 18% 30.05 in 10.0 mi South 20.7 mph 27.6 mph N/A   Clear
2:15 PM 60.8 °F - 16.0 °F 17% 30.03 in 10.0 mi South 18.4 mph 27.6 mph N/A   Clear
2:35 PM 61.7 °F - 14.7 °F 16% 30.03 in 10.0 mi South 18.4 mph 28.8 mph N/A   Clear
2:55 PM 61.9 °F - 12.2 °F 14% 30.02 in 10.0 mi South 21.9 mph 31.1 mph N/A   Clear
3:15 PM 61.7 °F - 12.0 °F 14% 30.01 in 10.0 mi South 21.9 mph 31.1 mph N/A   Clear
3:35 PM 60.3 °F - 11.3 °F 15% 30.00 in 10.0 mi South 23.0 mph 29.9 mph N/A   Clear
3:55 PM 59.4 °F - 13.6 °F 17% 30.00 in 10.0 mi South 18.4 mph 23.0 mph N/A   Clear
4:15 PM 58.1 °F - 15.6 °F 19% 29.98 in 10.0 mi South 20.7 mph 26.5 mph N/A   Clear
4:35 PM 57.0 °F - 15.3 °F 19% 29.98 in 10.0 mi SSE 16.1 mph 21.9 mph N/A   Clear
4:55 PM 55.4 °F - 15.4 °F 21% 29.98 in 10.0 mi SSE 12.7 mph - N/A   Clear
5:15 PM 54.5 °F - 15.6 °F 22% 29.97 in 10.0 mi SSE 11.5 mph - N/A   Clear
5:35 PM 53.4 °F - 16.7 °F 24% 29.97 in 10.0 mi SSE 8.1 mph 16.1 mph N/A   Clear
5:55 PM 52.2 °F - 18.1 °F 26% 29.97 in 10.0 mi SSE 12.7 mph 16.1 mph N/A   Clear
6:15 PM 53.2 °F - 18.3 °F 25% 29.96 in 10.0 mi SSE 15.0 mph 21.9 mph N/A   Clear
6:35 PM 53.6 °F - 18.0 °F 25% 29.96 in 10.0 mi SSE 15.0 mph 19.6 mph N/A   Clear
6:55 PM 53.1 °F - 17.4 °F 25% 29.96 in 10.0 mi SSE 15.0 mph 24.2 mph N/A   Clear
7:15 PM 52.7 °F - 17.1 °F 25% 29.95 in 10.0 mi South 16.1 mph 25.3 mph N/A   Clear
7:35 PM 52.0 °F - 16.7 °F 25% 29.95 in 10.0 mi South 18.4 mph 24.2 mph N/A   Clear
7:55 PM 51.3 °F - 17.4 °F 26% 29.95 in 10.0 mi South 15.0 mph 23.0 mph N/A   Clear
8:15 PM 51.3 °F - 17.6 °F 26% 29.94 in 10.0 mi South 16.1 mph 23.0 mph N/A   Clear
8:35 PM 51.1 °F - 18.0 °F 27% 29.94 in 10.0 mi South 15.0 mph 25.3 mph N/A   Clear
8:55 PM 50.2 °F - 18.1 °F 28% 29.94 in 10.0 mi South 13.8 mph 21.9 mph N/A   Clear
9:15 PM 49.6 °F - 18.3 °F 29% 29.94 in 10.0 mi South 15.0 mph 18.4 mph N/A   Clear
9:35 PM 49.1 °F - 18.9 °F 30% 29.93 in 10.0 mi South 13.8 mph 19.6 mph N/A   Clear
9:55 PM 48.6 °F - 19.0 °F 31% 29.93 in 10.0 mi South 13.8 mph - N/A   Clear
10:15 PM 48.4 °F - 19.2 °F 32% 29.93 in 10.0 mi South 12.7 mph - N/A   Clear
10:35 PM 48.2 °F - 19.4 °F 32% 29.93 in 10.0 mi South 11.5 mph 17.3 mph N/A   Clear
10:55 PM 48.6 °F - 19.2 °F 31% 29.93 in 10.0 mi South 11.5 mph 17.3 mph N/A   Clear
11:15 PM 48.6 °F - 19.2 °F 31% 29.93 in 10.0 mi South 11.5 mph - N/A   Clear
11:35 PM 49.1 °F - 19.4 °F 31% 29.92 in 10.0 mi South 13.8 mph 18.4 mph N/A   Clear
11:55 PM 49.3 °F - 19.6 °F 31% 29.92 in 10.0 mi South 12.7 mph 17.3 mph N/A   Clear